Regional Weather Roundup
Issued by NWS Cleveland, OH

Home | Current Version | Previous Version | Graphics & Text | Print | Product List | Glossary On
Versions: 1 2 3 4 5 6 7 8 9 10 11 12 13 14 15 16 17 18 19 20 21 22 23 24 25 26 27 28 29 30 31 32 33 34 35 36 37 38 39 40 41 42 43 44 45 46 47 48 49 50
000
ASUS41 KCLE 250502
RWRCLE
OHIO REGIONAL WEATHER ROUNDUP
NATIONAL WEATHER SERVICE CLEVELAND, OH
100 AM EDT SUN SEP 25 2016

NOTE: "FAIR" INDICATES FEW OR NO CLOUDS BELOW 12,000 FEET WITH NO
SIGNIFICANT WEATHER AND/OR OBSTRUCTIONS TO VISIBILITY.

OHZ001>008-015>018-024>027-034-035-043-044-250600-
   NORTHWEST OHIO

CITY           SKY/WX    TMP DP  RH WIND       PRES   REMARKS
DEFIANCE       CLEAR     59  52  77 E3        30.20S
FINDLAY        CLEAR     59  50  72 E6        30.19S
TOLEDO EXPRESS CLEAR     54  54 100 CALM      30.21R
TOLEDO EXEC    CLEAR     58  54  86 CALM      30.21S
LIMA           CLEAR     57  53  86 E8        30.18F
$$

OHZ009>014-019>023-028>033-038-089-250600-
   NORTHEAST OHIO

CITY           SKY/WX    TMP DP  RH WIND       PRES   REMARKS
CLE-HOPKINS    CLEAR     58  45  62 E8        30.23S
CLE-LAKEFRONT  CLEAR     60  46  59 E9        30.21S
CUY CO. ARPT   NOT AVBL
LORAIN-ELYRIA  CLEAR     53  44  71 E5        30.22R
ASHTABULA      CLEAR     46  46 100 CALM      30.24R
AKRON-CANTON   CLEAR     53  46  77 NE7       30.21S
WOOSTER        CLEAR     51  46  83 E7        30.21S
MANSFIELD      CLEAR     54  49  83 NE5       30.20S
YOUNGSTOWN     CLEAR     51  45  79 NE6       30.21S
$$

OHZ042-051>053-060>062-070>072-077>081-250600-
  SOUTHWEST OHIO

CITY           SKY/WX    TMP DP  RH WIND       PRES   REMARKS
CINC-COVINGTON CLEAR     72  65  78 E7        30.13S
CINC-LUNKEN    CLEAR     66  66 100 NE3       30.13S FOG
HAMILTON       CLEAR     63  61  93 CALM      30.15R
DAYTON         CLEAR     62  56  80 NE8       30.18R
WRIGHT-PAT AFB CLEAR     64  57  80 NE8       30.15S
DAYTON GENERAL CLEAR     65  56  72 E9        30.14S
WILMINGTON     CLEAR     63  59  87 NE7       30.15R
$$

OHZ036-037-039>041-045>050-054>059-063>069-073>076-082>088-250600-
  CENTRAL AND SOUTHEAST OHIO

CITY           SKY/WX    TMP DP  RH WIND       PRES   REMARKS
COLUMBUS       CLEAR     61  55  81 NE5       30.16S
OSU AIRPORT    CLEAR     60  54  80 NE7       30.17S
BOLTON FIELD   NOT AVBL
RICKENBACK AFB CLEAR     60  55  81 NE8       30.16S
NEWARK         CLEAR     60  53  77 N5        30.17S
MARION         CLEAR     55  50  83 NE3       30.19S
LANCASTER      CLEAR     60  55  83 N3        30.17R
ZANESVILLE     CLEAR     59  51  75 NE6       30.18R
NEW PHILLY     CLEAR     54  49  83 CALM      30.20S
$$



USA.gov is the U.S. government's official web portal to all federal, state and local government web resources and services.